Location: Harrison
(47.4490°N, 116.7734°W)
Time: 22:21:06
(UTC+00:00)

JY1SAT - Visible Passes

Search period start: 19 September 2024 00:00
Search period end: 29 September 2024 00:00
Orbit: 529 x 541 km, 97.5° (Epoch: 18 September)

Date Brightness Start Highest point End Pass type
(mag) Time Alt. Az. Time Alt. Az. Time Alt. Az.
19 Sep ? 03:54:00 24° NE 03:54:00 24° NE 03:56:17 10° N visible
19 Sep ? 05:29:25 17° NW 05:29:25 17° NW 05:30:41 10° NW visible
20 Sep ? 03:45:09 20° NE 03:45:09 20° NE 03:47:13 10° NNE visible
20 Sep ? 05:20:34 19° NW 05:20:34 19° NW 05:21:56 10° NNW visible
21 Sep ? 03:36:16 17° NE 03:36:16 17° NE 03:38:03 10° NNE visible
21 Sep ? 05:11:40 21° NW 05:11:40 21° NW 05:13:09 10° NNW visible
22 Sep ? 03:27:21 15° NE 03:27:21 15° NE 03:28:47 10° NNE visible
22 Sep ? 05:02:46 22° NNW 05:02:46 22° NNW 05:04:17 10° NNW visible
23 Sep ? 03:18:24 12° NE 03:18:24 12° NE 03:19:21 10° NNE visible
23 Sep ? 04:53:49 22° NNW 04:53:49 22° NNW 04:55:20 10° NNW visible
24 Sep ? 03:09:26 10° NE 03:09:26 10° NE 03:09:32 10° NE visible
24 Sep ? 04:44:49 23° NNW 04:44:49 23° NNW 04:46:21 10° NNW visible
25 Sep ? 04:35:49 22° N 04:35:49 22° N 04:37:18 10° N visible
26 Sep ? 04:26:47 21° N 04:26:47 21° N 04:28:11 10° N visible
27 Sep ? 04:17:43 19° N 04:17:43 19° N 04:19:01 10° N visible
28 Sep ? 04:08:36 18° N 04:08:36 18° N 04:09:46 10° N visible
